This is the latest recevied weather packets stored in our database for station/object W0WC. If no packets are shown the sender has not sent any weather packets the latest 10 day(s).
| Time | Temp. | Humidity | Pressure | Rain* | Wind** | Luminosity | Snow |
|---|---|---|---|---|---|---|---|
| 1777593940 | 16.67° C | 55% | 1016.5 hPa | 0 mm | - | 49 W/m² | - |
| 1777593636 | 16.67° C | 54% | 1016.6 hPa | 0 mm | - | 51 W/m² | - |
| 1777593333 | 16.67° C | 55% | 1016.9 hPa | 0 mm | - | 73 W/m² | - |
| 1777593027 | 16.67° C | 53% | 1016.8 hPa | 0 mm | - | 70 W/m² | - |
| 1777592721 | 17.22° C | 51% | 1016.8 hPa | 0 mm | - | 74 W/m² | - |
| 1777592417 | 17.22° C | 52% | 1016.8 hPa | 0 mm | - | 89 W/m² | - |
| 1777592112 | 17.22° C | 52% | 1017.1 hPa | 0 mm | - | 92 W/m² | - |
| 1777591810 | 17.22° C | 51% | 1016.9 hPa | 0 mm | - | 78 W/m² | - |
| 1777591505 | 17.22° C | 50% | 1016.9 hPa | 0 mm | - | 81 W/m² | - |
| 1777591202 | 17.22° C | 50% | 1017.1 hPa | 0 mm | - | 72 W/m² | - |
| 1777590901 | 17.22° C | 49% | 1017.1 hPa | 0 mm | - | 84 W/m² | - |
| 1777590598 | 17.22° C | 50% | 1016.9 hPa | 0 mm | - | 96 W/m² | - |
| 1777590294 | 17.22° C | 50% | 1017 hPa | 0 mm | - | 112 W/m² | - |
| 1777589992 | 17.22° C | 50% | 1016.9 hPa | 0 mm | - | 98 W/m² | - |
| 1777589688 | 17.22° C | 46% | 1016.9 hPa | 0 mm | - | 89 W/m² | - |
| 1777589386 | 17.22° C | 48% | 1016.8 hPa | 0 mm | - | 87 W/m² | - |
| 1777589083 | 17.22° C | 46% | 1016.7 hPa | 0 mm | - | 87 W/m² | - |
| 1777588778 | 17.78° C | 46% | 1016.6 hPa | 0 mm | - | 90 W/m² | - |
| 1777588474 | 17.78° C | 48% | 1016.6 hPa | 0 mm | - | 111 W/m² | - |
| 1777588169 | 17.78° C | 46% | 1016.6 hPa | 0 mm | - | 146 W/m² | - |
| 1777587866 | 17.78° C | 45% | 1016.6 hPa | 0 mm | - | 188 W/m² | - |
| 1777587561 | 17.78° C | 45% | 1016.4 hPa | 0 mm | - | 210 W/m² | - |
| 1777587256 | 17.78° C | 47% | 1016.7 hPa | 0 mm | - | 211 W/m² | - |
| 1777586952 | 17.78° C | 46% | 1016.7 hPa | 0 mm | - | 174 W/m² | - |
| 1777586648 | 17.78° C | 46% | 1016.8 hPa | 0 mm | - | 160 W/m² | - |
* Rain latest hour (hover to see other rain measurements)
** Current wind speed in m/s (hover to see current wind gust speed)